Theta_e
314 314 313 313 314 314 314 314 315 316 315 312 311 313 314 317 318 316 312 315 319 326 326 318 322 323 316 313 314 313 305 301 303 303 304 308 306 309 311 309 311 311 313 324 330
314 314 312 312 313 313 313 313 313 314 314 312 310 311 312 316 310 308 321 325 324 325 321 312 315 318 311 310 310 307 302 302 307 307 306 307 307 309 308 309 309 311 317 331 334
314 313 312 312 312 312 312 312 312 312 312 312 313 310 312 313 304 305 326 325 326 325 320 317 319 315 308 309 307 306 301 305 305 307 307 307 307 310 308 306 309 309 313 326 331
313 313 312 311 311 311 310 311 311 311 312 313 311 310 310 308 290 312 322 328 326 322 318 316 314 309 306 303 308 301 304 305 306 308 307 306 309 307 309 308 312 314 314 315 328
313 312 312 311 310 310 310 310 310 310 310 310 311 308 306 300 299 316 319 320 321 318 315 312 309 308 303 305 305 303 304 306 307 308 308 308 307 307 308 312 313 313 313 314 315
312 311 311 311 310 310 309 309 310 309 309 310 310 308 302 293 309 315 315 316 319 316 314 314 309 311 306 305 303 305 304 305 307 307 307 305 306 306 308 311 310 311 311 313 315
311 311 310 309 311 310 309 309 309 309 309 309 309 306 299 296 313 317 315 313 319 316 313 315 314 309 308 303 307 305 301 303 304 305 304 306 302 302 308 310 308 309 310 312 314
312 311 309 308 308 308 308 309 309 309 309 309 309 304 293 307 310 313 314 314 318 319 317 318 315 309 306 307 304 300 300 294 301 304 304 303 295 302 307 307 306 308 309 310 312
312 311 309 309 308 307 308 309 309 309 309 308 303 300 293 312 307 312 314 310 314 316 318 317 313 307 305 299 295 297 291 293 296 303 301 300 295 301 305 305 305 306 308 309 310
311 311 308 307 307 307 308 307 307 308 307 306 304 295 299 299 308 311 314 313 311 311 310 308 306 302 300 297 287 290 291 293 292 298 300 299 297 302 305 304 304 305 306 307 309
311 310 307 307 307 306 305 303 297 296 299 292 292 294 300 307 312 308 312 310 311 307 298 303 297 294 296 298 296 295 293 292 295 297 297 297 297 300 303 303 302 304 305 307 308
310 309 305 307 306 306 304 297 297 298 289 296 296 295 300 304 301 305 314 303 303 296 300 297 293 299 300 298 296 296 292 292 295 295 296 295 295 299 301 301 302 303 303 305 306
310 307 304 307 307 304 300 298 305 303 291 295 297 296 298 306 300 302 306 301 299 296 297 292 296 299 298 295 295 295 292 291 292 294 294 293 293 294 295 297 297 297 298 299 301
310 309 307 306 302 302 298 305 306 302 286 287 293 298 302 303 299 308 307 302 296 291 296 294 298 297 295 294 296 291 297 294 292 292 289 292 288 293 293 293 295 296 298 300 302
309 308 307 306 301 298 301 305 304 299 277 290 292 304 303 298 300 299 308 303 293 290 294 289 295 296 294 295 298 293 296 293 291 290 289 288 287 290 292 291 293 296 299 301 302
307 307 306 305 305 303 305 303 300 285 277 287 293 295 295 298 298 300 301 303 301 293 294 292 297 295 294 296 298 294 292 291 290 289 284 286 285 287 290 292 293 295 298 301 303
310 306 304 305 298 305 304 299 286 281 287 287 290 295 294 294 294 295 293 292 291 286 286 289 289 293 295 291 293 292 290 285 283 283 284 285 284 289 291 293 294 296 299 302 304
309 305 303 304 306 304 301 291 282 284 286 293 294 294 291 294 292 293 293 290 293 292 290 286 284 289 292 292 289 291 291 287 279 279 282 284 282 288 293 295 295 297 299 302 303
305 304 304 304 305 304 296 285 284 285 290 291 292 288 289 293 293 293 292 291 292 293 288 286 284 292 292 293 294 289 288 288 283 281 282 285 286 290 292 292 295 296 299 301 303
302 301 301 304 306 302 295 286 288 291 294 293 287 290 285 288 289 291 291 293 291 293 294 289 284 290 291 294 293 292 292 285 286 279 278 282 283 286 289 291 294 297 300 302 305
301 298 302 305 305 300 287 289 293 297 296 292 289 289 290 288 291 290 289 292 294 292 294 292 290 287 291 289 288 288 288 286 287 284 282 281 284 292 292 295 295 297 299 301 304
298 297 303 305 298 297 291 292 295 296 298 294 294 292 290 290 289 289 288 292 296 295 291 291 289 284 286 291 292 291 289 288 285 281 283 283 285 293 295 295 295 297 300 302 303
296 296 304 304 292 293 294 294 295 295 294 293 292 293 293 290 287 289 290 294 295 294 292 293 287 281 283 288 290 288 289 288 286 286 282 283 286 293 294 294 297 297 300 302 300
297 293 299 301 298 294 292 292 292 296 294 294 293 294 291 290 292 289 289 293 294 294 297 296 288 285 282 285 288 285 287 288 287 284 284 285 287 291 293 295 299 300 301 302 299
297 290 293 292 294 293 293 293 291 291 296 295 292 292 291 288 289 288 291 291 293 296 294 293 286 286 287 287 287 287 287 287 284 287 285 286 286 291 294 296 298 300 301 300 297
291 291 294 292 291 291 291 292 291 293 293 291 291 292 293 290 290 289 292 292 291 294 292 293 286 286 284 286 287 285 288 288 288 288 288 288 288 296 298 298 299 301 298 297 295
296 296 293 290 290 291 291 291 292 294 295 296 295 294 293 294 297 296 296 296 296 292 291 291 287 285 282 285 285 282 286 288 288 289 289 285 291 296 295 296 298 299 296 294 294
Wind_Speed
17 19 19 18 18 17 15 16 14 13 13 9 9 10 10 10 11 5 21 7 16 10 8 11 11 11 9 9 5 2 10 17 22 19 14 8 10 5 2 6 3 1 3 5 3
19 20 20 19 16 14 12 12 10 10 9 7 5 7 8 10 5 10 12 19 15 15 9 16 14 14 8 9 7 12 15 22 11 11 13 11 11 9 7 8 7 6 2 4 7
20 20 18 16 14 11 9 11 11 8 8 8 9 4 8 8 9 10 23 19 19 16 13 14 13 13 10 8 9 13 16 11 8 9 6 11 9 5 8 9 6 7 4 4 6
20 20 19 14 14 11 8 8 8 6 9 9 5 5 5 5 8 5 2 23 19 17 15 16 18 12 13 14 13 9 13 8 5 5 6 11 6 7 8 1 6 7 3 0 5
21 20 17 12 11 9 7 7 8 7 7 5 6 2 3 9 13 6 8 7 20 20 20 18 22 17 16 13 12 13 6 7 4 7 5 5 7 7 9 6 5 4 5 5 3
20 18 17 13 12 11 8 5 8 7 6 6 6 2 5 16 10 4 5 12 19 22 21 19 17 14 14 12 13 13 5 13 8 8 4 6 7 4 6 4 7 10 12 9 8
19 18 11 8 18 14 10 7 8 8 6 6 4 5 9 15 2 6 6 10 20 22 21 16 13 14 10 8 9 8 13 8 9 7 7 6 12 14 15 15 13 13 10 8 10
22 17 9 11 10 13 10 8 9 8 7 6 6 4 7 13 14 8 5 2 17 19 16 10 14 8 7 6 10 13 7 9 11 16 6 6 13 5 5 10 14 13 12 11 15
23 18 7 11 11 9 8 9 10 9 6 3 4 6 5 6 10 9 7 3 16 16 14 9 9 9 7 14 10 14 11 17 5 7 8 17 9 7 4 4 9 10 10 10 11
22 18 5 8 8 7 6 5 2 3 4 3 1 5 6 11 5 6 6 3 13 16 13 14 8 10 13 15 15 16 15 11 14 6 9 9 13 6 7 8 11 12 12 12 11
23 18 6 6 4 2 1 2 3 4 4 3 4 2 6 5 5 8 7 4 16 20 11 20 10 19 20 17 0 10 15 10 8 2 4 11 11 11 13 13 14 15 16 14 12
23 12 7 6 4 5 1 2 5 4 3 7 6 8 11 8 6 6 7 8 12 19 12 8 14 16 14 10 7 13 13 9 5 3 4 4 11 14 15 13 11 12 13 13 10
23 7 4 8 7 3 4 6 5 3 2 5 3 7 5 4 4 6 7 3 18 12 18 7 13 18 15 13 12 8 10 6 2 4 1 6 10 5 3 5 4 3 3 4 1
23 12 6 5 1 3 5 5 3 2 1 5 3 1 5 4 6 9 6 2 5 7 8 2 1 20 19 16 14 9 5 7 6 4 4 4 1 5 5 9 7 9 10 10 8
15 13 13 12 2 3 5 4 3 2 3 8 4 2 4 1 6 7 5 5 9 10 4 3 3 19 18 17 13 4 6 7 4 3 2 4 5 7 7 9 9 9 8 7 6
13 4 2 3 3 4 5 4 4 4 7 5 6 5 5 8 6 5 2 5 6 10 11 5 3 5 3 9 5 14 10 7 3 1 4 3 4 6 7 8 8 5 5 6 7
13 6 3 2 1 4 6 3 2 7 1 6 5 5 11 8 8 5 3 2 4 5 3 3 4 3 3 9 4 1 7 4 4 4 1 2 4 2 5 5 4 6 5 6 7
11 4 2 0 2 3 3 3 9 4 2 4 5 12 7 4 5 5 8 6 4 3 4 4 5 1 1 1 7 8 3 3 4 5 4 2 6 4 1 5 4 5 4 5 6
4 2 2 3 4 2 2 6 3 1 3 6 7 6 5 7 4 2 4 4 3 2 2 5 5 4 1 2 4 4 4 3 5 1 2 4 3 1 4 8 9 7 5 3 3
3 2 2 2 3 2 0 6 1 4 3 1 3 2 3 4 3 3 1 2 3 2 2 3 7 3 3 1 9 1 8 3 1 4 5 5 3 5 10 8 7 4 5 6 6
2 2 3 1 3 1 4 4 2 1 3 2 3 4 5 4 4 4 3 2 2 3 2 4 3 4 3 4 6 4 3 2 1 3 3 2 4 4 11 8 3 5 5 5 6
2 0 2 4 2 2 2 2 2 2 1 2 2 3 3 3 4 2 3 1 3 3 3 2 5 5 2 2 2 2 3 5 4 5 0 3 3 5 4 3 4 9 7 5 5
3 3 1 3 3 3 2 2 1 5 4 2 2 1 1 3 2 2 3 2 4 3 4 5 4 5 2 3 3 6 6 3 4 1 5 3 5 3 3 4 7 7 7 5 4
2 0 3 3 3 2 1 1 1 1 1 1 2 2 3 3 3 4 3 2 1 1 3 3 3 1 2 3 4 5 10 10 5 4 5 6 1 5 5 8 8 9 7 6 6
3 2 2 1 3 2 1 2 2 2 1 1 2 2 3 3 3 4 3 4 3 5 2 1 3 1 1 2 3 3 7 13 10 6 6 2 6 5 9 8 10 8 5 5 6
3 2 2 1 2 1 1 1 2 1 2 1 2 4 2 2 1 7 7 5 3 5 3 1 3 2 1 2 6 7 11 12 15 16 14 15 17 14 7 4 7 6 5 7 7
3 2 3 2 0 2 2 1 2 4 2 2 0 4 3 1 1 1 2 4 5 8 5 5 6 2 1 1 5 8 16 18 11 10 14 12 10 6 7 6 6 4 4 4 4
Wind_Direction
316 311 313 313 308 300 305 309 294 264 261 264 307 293 321 321 324 316 213 211 216 228 168 185 202 180 181 181 204 220 222 224 217 224 220 185 205 178 147 216 199 169 319 6 112
307 311 313 312 316 311 309 310 301 301 246 265 278 316 311 339 319 278 233 213 207 227 198 187 190 169 181 181 188 206 221 224 234 222 220 186 210 179 187 193 199 179 88 74 132
312 310 307 314 318 320 317 309 312 283 273 282 292 317 322 329 286 252 203 214 208 218 223 192 188 178 180 173 179 208 228 209 219 211 192 186 193 188 205 206 197 176 84 78 151
314 308 313 313 313 319 318 312 305 300 285 262 280 307 326 273 236 134 91 215 208 205 194 186 187 184 189 189 178 196 224 225 195 171 167 179 171 198 215 179 143 125 26 204 182
317 316 317 313 288 307 313 311 303 298 291 277 278 323 309 214 229 129 323 290 202 198 200 191 187 191 194 189 178 214 194 206 186 158 168 156 192 229 232 207 233 268 254 240 212
323 321 320 326 300 305 304 298 295 293 287 271 253 137 222 243 212 159 234 294 183 192 200 192 195 190 202 188 190 192 173 205 209 206 176 206 224 229 220 247 241 240 248 243 251
327 320 333 12 325 300 291 285 288 284 282 268 252 214 241 244 134 156 210 225 188 190 190 188 194 178 166 165 193 162 202 217 215 215 223 202 233 238 252 253 254 247 241 253 253
322 315 306 296 267 282 290 294 284 274 265 257 228 194 252 252 239 221 281 277 185 190 192 185 170 177 192 146 168 182 187 193 221 220 200 209 249 119 236 237 252 255 258 256 257
321 303 284 296 298 310 301 292 283 272 256 220 205 216 244 162 205 178 215 139 170 174 197 162 171 165 157 159 156 190 195 211 180 215 207 211 255 252 228 239 262 260 262 254 266
342 335 235 310 327 311 316 324 12 180 172 144 209 214 240 193 168 152 178 168 153 161 169 184 186 182 182 183 195 187 193 206 215 175 217 210 237 243 241 264 269 274 272 264 256
350 342 136 357 355 343 81 138 189 129 205 217 214 316 83 146 146 170 147 174 169 169 173 188 183 195 185 196 26 171 189 185 206 147 229 237 250 251 256 263 261 261 263 266 266
8 40 97 29 68 89 21 66 50 4 264 228 262 296 282 279 144 162 181 195 165 174 145 168 204 188 172 153 170 184 179 188 130 135 248 245 270 259 252 255 274 280 272 269 278
9 61 65 26 94 53 37 41 319 255 260 81 92 263 295 246 125 125 116 334 154 168 158 137 178 171 166 169 166 173 181 164 134 161 185 293 256 204 120 125 99 50 313 242 59
24 75 46 2 40 353 56 0 35 314 245 31 98 202 252 261 73 46 69 269 84 137 115 63 298 170 177 178 197 188 168 141 140 206 236 314 223 133 149 120 78 79 81 93 85
44 66 66 37 7 39 11 349 319 258 70 7 328 292 225 58 121 52 60 336 121 139 170 76 204 174 180 184 196 99 137 124 123 139 270 174 241 112 163 127 107 98 77 64 51
16 57 58 42 52 340 327 305 227 245 45 7 326 110 145 88 69 126 164 58 61 62 62 75 9 42 50 82 164 135 118 85 91 212 225 140 262 144 159 139 124 126 64 46 31
336 7 44 149 117 312 315 299 257 42 310 17 70 120 99 76 64 69 40 39 117 119 106 105 44 53 12 78 60 177 161 152 194 202 251 95 211 20 162 151 128 127 50 33 26
312 279 43 77 203 307 306 258 51 319 358 210 134 84 81 98 83 156 146 89 53 101 101 102 112 117 11 228 168 188 219 250 207 192 135 143 226 115 207 230 208 170 6 8 16
331 200 229 186 213 267 263 48 53 308 275 128 93 62 79 71 94 71 54 89 98 192 111 132 83 109 19 140 181 161 213 30 94 72 251 163 216 218 119 127 167 211 330 13 14
312 275 198 138 204 233 354 92 98 208 278 348 81 331 120 106 131 164 62 74 104 39 302 126 113 94 163 189 56 267 131 156 212 198 223 175 225 144 176 157 182 251 338 352 4
285 251 129 301 202 11 46 64 31 334 305 340 116 121 118 138 166 129 127 129 169 116 116 136 90 135 184 213 168 142 177 72 6 299 280 191 130 132 153 161 176 342 339 329 351
319 68 116 178 76 67 43 317 302 334 350 87 86 98 138 143 139 135 125 95 163 147 98 56 102 136 136 65 325 261 222 216 248 178 5 321 115 159 178 212 281 323 320 325 351
343 312 276 270 81 50 11 26 349 11 22 28 96 351 157 127 127 118 134 23 165 157 154 166 119 118 148 193 175 221 189 182 99 68 203 233 119 131 198 237 294 291 313 333 344
303 259 357 51 28 40 5 26 322 116 323 1 108 137 143 119 54 134 124 48 189 3 89 101 116 307 189 85 120 193 196 192 193 202 160 238 338 172 230 298 323 337 345 349 355
5 61 356 86 89 51 249 332 318 344 352 323 141 249 166 142 130 137 141 118 135 159 99 148 111 121 165 130 175 216 200 198 206 203 213 111 236 255 301 320 332 333 355 328 1
14 352 332 84 307 239 103 117 332 342 290 171 200 150 191 178 229 176 163 183 172 169 165 96 119 129 210 193 230 249 232 215 221 232 246 259 278 279 289 327 340 351 345 3 5
358 299 304 10 327 234 95 359 17 331 159 287 316 148 160 166 171 351 122 160 164 163 156 156 147 162 192 151 286 257 230 212 208 209 215 222 231 265 299 340 341 339 16 4 1